• In Slovakia
  • List of Countries
  • For 7 days
  • Water Temperature
  • Satellite Maps
  • Weather Map
  • Weather Widgets
  • user-avatar
    Login

    Hourly Weather Bremen

    Today, 18 October, Thursday

    Time Temperature Precipitation Wind Pressure Humidity
    00:00 +13°C° 0 mm 2 mps 764 mmHg 95%
    01:00 +13°C° 0 mm 1 mps 764 mmHg 96%
    02:00 +12°C° 0 mm 2 mps 765 mmHg 96%
    03:00 +12°C° 0 mm 2 mps 765 mmHg 96%
    04:00 +12°C° 0 mm 2 mps 765 mmHg 97%
    05:00 +12°C° 0 mm 2 mps 765 mmHg 97%
    06:00 +12°C° 0 mm 2 mps 765 mmHg 97%
    07:00 +11°C° 0 mm 1 mps 766 mmHg 97%
    08:00 +13°C° 0 mm 2 mps 766 mmHg 93%
    09:00 +13°C° 0 mm 3 mps 766 mmHg 89%
    10:00 +14°C° 0 mm 3 mps 766 mmHg 84%
    11:00 +14°C° 0 mm 3 mps 766 mmHg 80%
    12:00 +15°C° 0 mm 4 mps 766 mmHg 76%
    13:00 +15°C° 0 mm 4 mps 767 mmHg 72%
    14:00 +15°C° 0 mm 4 mps 767 mmHg 72%
    15:00 +15°C° 0 mm 4 mps 767 mmHg 72%
    16:00 +14°C° 0 mm 4 mps 767 mmHg 71%
    17:00 +13°C° 0 mm 3 mps 767 mmHg 76%
    18:00 +11°C° 0 mm 3 mps 767 mmHg 81%
    19:00 +10°C° 0 mm 3 mps 768 mmHg 85%
    20:00 +9°C° 0 mm 3 mps 768 mmHg 87%
    21:00 +8°C° 0 mm 2 mps 768 mmHg 88%
    22:00 +8°C° 0 mm 2 mps 768 mmHg 90%
    23:00 +7°C° 0 mm 2 mps 768 mmHg 90%

    Tomorrow, 19 October, Friday

    Time Temperature Precipitation Wind Pressure Humidity
    00:00 +7°C° 0 mm 2 mps 768 mmHg 91%
    01:00 +6°C° 0 mm 2 mps 768 mmHg 91%
    02:00 +6°C° 0 mm 2 mps 768 mmHg 91%
    03:00 +7°C° 0 mm 1 mps 768 mmHg 92%
    04:00 +6°C° 0 mm 1 mps 768 mmHg 92%
    05:00 +6°C° 0 mm 1 mps 769 mmHg 92%
    06:00 +6°C° 0 mm 1 mps 769 mmHg 92%
    07:00 +6°C° 0 mm 1 mps 769 mmHg 93%
    08:00 +7°C° 0 mm 1 mps 769 mmHg 86%
    09:00 +9°C° 0 mm 1 mps 769 mmHg 79%
    10:00 +11°C° 0 mm 1 mps 769 mmHg 72%
    11:00 +12°C° 0 mm 1 mps 769 mmHg 66%
    12:00 +13°C° 0 mm 1 mps 769 mmHg 60%
    13:00 +14°C° 0 mm 1 mps 769 mmHg 54%
    14:00 +14°C° 0 mm 1 mps 769 mmHg 55%
    15:00 +14°C° 0 mm 1 mps 769 mmHg 56%
    16:00 +14°C° 0 mm 1 mps 769 mmHg 58%
    17:00 +12°C° 0 mm 1 mps 769 mmHg 64%
    18:00 +10°C° 0 mm 1 mps 769 mmHg 71%
    19:00 +7°C° 0 mm 2 mps 770 mmHg 77%
    20:00 +8°C° 0 mm 1 mps 770 mmHg 80%
    21:00 +7°C° 0 mm 1 mps 770 mmHg 83%
    22:00 +7°C° 0 mm 1 mps 770 mmHg 85%
    23:00 +6°C° 0 mm 1 mps 770 mmHg 86%

    Day after tomorrow, 20 October, Saturday

    Time Temperature Precipitation Wind Pressure Humidity
    00:00 +6°C° 0 mm 1 mps 771 mmHg 87%
    01:00 +6°C° 0 mm 1 mps 771 mmHg 87%
    02:00 +6°C° 0 mm 1 mps 771 mmHg 87%
    03:00 +5°C° 0 mm 1 mps 771 mmHg 88%
    04:00 +5°C° 0 mm 1 mps 771 mmHg 88%
    05:00 +5°C° 0 mm 1 mps 771 mmHg 89%
    06:00 +5°C° 0 mm 1 mps 772 mmHg 89%
    07:00 +5°C° 0 mm 1 mps 772 mmHg 90%
    08:00 +7°C° 0 mm 1 mps 772 mmHg 83%
    09:00 +9°C° 0 mm 1 mps 772 mmHg 76%
    10:00 +11°C° 0 mm 1 mps 773 mmHg 69%
    11:00 +12°C° 0 mm 1 mps 773 mmHg 66%
    12:00 +13°C° 0 mm 2 mps 773 mmHg 62%
    13:00 +14°C° 0 mm 2 mps 773 mmHg 58%
    14:00 +14°C° 0 mm 2 mps 773 mmHg 61%
    15:00 +14°C° 0 mm 2 mps 773 mmHg 63%
    16:00 +14°C° 0 mm 1 mps 772 mmHg 66%
    17:00 +13°C° 0 mm 1 mps 773 mmHg 73%
    18:00 +11°C° 0 mm 1 mps 773 mmHg 79%
    19:00 +9°C° 0 mm 1 mps 773 mmHg 86%
    20:00 +9°C° 0 mm 1 mps 773 mmHg 87%
    21:00 +9°C° 0 mm 1 mps 773 mmHg 88%
    22:00 +8°C° 0 mm 1 mps 773 mmHg 89%
    23:00 +8°C° 0 mm 1 mps 773 mmHg 89%

    21 October, Sunday

    Time Temperature Precipitation Wind Pressure Humidity
    00:00 +8°C° 0 mm 1 mps 773 mmHg 89%
    01:00 +8°C° 0 mm 1 mps 773 mmHg 90%
    02:00 +7°C° 0 mm 1 mps 773 mmHg 90%
    03:00 +6°C° 0 mm 2 mps 772 mmHg 90%
    04:00 +6°C° 0 mm 2 mps 772 mmHg 90%
    05:00 +6°C° 0 mm 2 mps 772 mmHg 89%
    06:00 +6°C° 0 mm 2 mps 772 mmHg 89%
    07:00 +5°C° 0 mm 2 mps 772 mmHg 88%
    08:00 +7°C° 0 mm 2 mps 771 mmHg 80%
    09:00 +9°C° 0 mm 2 mps 771 mmHg 72%
    10:00 +11°C° 0 mm 3 mps 771 mmHg 64%
    11:00 +12°C° 0 mm 3 mps 771 mmHg 59%
    12:00 +14°C° 0 mm 3 mps 770 mmHg 53%
    13:00 +16°C° 0 mm 3 mps 770 mmHg 48%
    14:00 +16°C° 0 mm 2 mps 770 mmHg 50%
    15:00 +16°C° 0 mm 2 mps 769 mmHg 52%
    16:00 +16°C° 0 mm 2 mps 769 mmHg 54%
    17:00 +14°C° 0 mm 2 mps 769 mmHg 57%
    18:00 +13°C° 0 mm 2 mps 769 mmHg 59%
    19:00 +12°C° 0 mm 2 mps 769 mmHg 62%
    20:00 +10°C° 0 mm 2 mps 769 mmHg 62%
    21:00 +10°C° 0 mm 2 mps 769 mmHg 62%
    22:00 +10°C° 0 mm 3 mps 769 mmHg 62%
    23:00 +10°C° 0 mm 3 mps 769 mmHg 64%

    22 October, Monday

    Time Temperature Precipitation Wind Pressure Humidity
    00:00 +10°C° 0 mm 3 mps 768 mmHg 67%
    01:00 +9°C° 0 mm 3 mps 768 mmHg 69%
    02:00 +10°C° 0.2 mm 3 mps 769 mmHg 74%
    03:00 +10°C° 0.2 mm 4 mps 769 mmHg 79%
    04:00 +11°C° 0.2 mm 4 mps 769 mmHg 84%
    05:00 +10°C° 0.4 mm 4 mps 770 mmHg 85%
    06:00 +10°C° 0.4 mm 4 mps 770 mmHg 87%
    07:00 +10°C° 0.4 mm 4 mps 770 mmHg 89%
    08:00 +10°C° 0.1 mm 4 mps 771 mmHg 83%
    09:00 +11°C° 0.1 mm 4 mps 771 mmHg 77%
    10:00 +11°C° 0.1 mm 4 mps 772 mmHg 72%
    11:00 +11°C° 0 mm 4 mps 772 mmHg 68%
    12:00 +11°C° 0 mm 4 mps 772 mmHg 64%
    13:00 +12°C° 0 mm 4 mps 772 mmHg 60%
    14:00 +11°C° 0 mm 4 mps 772 mmHg 60%
    15:00 +11°C° 0 mm 3 mps 772 mmHg 61%
    16:00 +11°C° 0 mm 3 mps 772 mmHg 61%
    17:00 +10°C° 0 mm 3 mps 772 mmHg 65%
    18:00 +9°C° 0 mm 3 mps 772 mmHg 70%
    19:00 +8°C° 0 mm 3 mps 772 mmHg 75%
    20:00 +8°C° 0 mm 3 mps 771 mmHg 75%
    21:00 +8°C° 0 mm 3 mps 771 mmHg 75%
    22:00 +8°C° 0 mm 3 mps 771 mmHg 75%
    23:00 +7°C° 0 mm 4 mps 770 mmHg 76%

    23 October, Tuesday

    Time Temperature Precipitation Wind Pressure Humidity
    00:00 +7°C° 0 mm 4 mps 770 mmHg 76%
    01:00 +8°C° 0 mm 5 mps 769 mmHg 76%
    02:00 +8°C° 0.1 mm 5 mps 768 mmHg 78%
    03:00 +8°C° 0.1 mm 6 mps 767 mmHg 80%
    04:00 +8°C° 0.1 mm 7 mps 766 mmHg 82%
    05:00 +8°C° 0.5 mm 7 mps 765 mmHg 84%
    06:00 +9°C° 0.5 mm 7 mps 764 mmHg 86%
    07:00 +9°C° 0.5 mm 7 mps 763 mmHg 88%
    08:00 +10°C° 0.7 mm 7 mps 763 mmHg 87%
    09:00 +10°C° 0.7 mm 7 mps 763 mmHg 86%
    10:00 +10°C° 0.7 mm 7 mps 762 mmHg 86%
    11:00 +11°C° 0.5 mm 8 mps 762 mmHg 82%
    12:00 +11°C° 0.5 mm 8 mps 762 mmHg 79%
    13:00 +11°C° 0.5 mm 9 mps 762 mmHg 76%
    14:00 +11°C° 0.1 mm 9 mps 762 mmHg 73%
    15:00 +10°C° 0.1 mm 8 mps 762 mmHg 70%
    16:00 +10°C° 0.1 mm 8 mps 762 mmHg 67%
    17:00 +9°C° 0 mm 7 mps 763 mmHg 69%
    18:00 +8°C° 0 mm 6 mps 763 mmHg 71%
    19:00 +6°C° 0 mm 5 mps 764 mmHg 74%
    20:00 +6°C° 0 mm 4 mps 764 mmHg 75%
    21:00 +6°C° 0 mm 4 mps 764 mmHg 77%
    22:00 +5°C° 0 mm 3 mps 765 mmHg 78%
    23:00 +5°C° 0 mm 3 mps 765 mmHg 80%
    Show more